DateTimeUTC,F1_A11,F1_S11,BsB_S11,BsG_S11,BsR_S11,BbsB_S11,BbsG_S11,BbsR_S11,BaB_A11,BaG_A11,BaR_A11,Tu_S11,T_S11,Uu_S11,U_S11,P_S11,T1_A11
2021-09-02T19:00:00Z,00000200,20000000,,,,,,,0000.30,0000.08,0000.02,18.8,25.5,04.8,03.2,0675.1,31.0
2021-09-02T19:01:00Z,00000200,20000000,,,,,,,-000.17,0000.06,0000.18,18.8,25.6,04.8,03.2,0675.1,31.0
2021-09-02T19:02:00Z,00000200,20000000,,,,,,,0000.07,-000.05,-000.02,18.8,25.6,04.8,03.2,0675.1,31.0
2021-09-02T19:03:00Z,00000200,60000000,,,,,,,0000.64,0000.96,0000.40,18.8,25.6,04.8,03.2,0675.1,31.0
2021-09-02T19:04:00Z,00000200,40000000,0003.74,0003.72,0002.28,0000.24,0000.37,0000.44,0000.99,0000.90,0000.80,18.9,25.4,04.8,03.3,0676.0,31.0
2021-09-02T19:05:00Z,00000200,00000000,0004.71,0003.24,0002.35,0000.50,0000.23,0000.63,0000.80,0000.73,0000.55,19.0,25.4,04.9,03.3,0676.1,31.0
2021-09-02T19:06:00Z,00000200,00000000,0004.35,0004.06,0002.37,0000.80,0000.38,0000.29,0001.08,0000.69,0000.62,19.0,25.3,05.0,03.4,0676.1,31.0
2021-09-02T19:07:00Z,00000200,00000000,0004.47,0003.50,0002.09,0000.83,0000.80,0000.17,0000.79,0000.89,0000.93,19.0,25.3,05.0,03.4,0676.1,31.0
2021-09-02T19:08:00Z,00000200,00000000,0004.81,0003.50,0002.26,0000.53,0000.47,0000.11,0000.76,0001.13,0000.38,19.0,25.3,05.0,03.4,0676.1,31.0
2021-09-02T19:09:00Z,00000200,00000000,0004.56,0003.37,0002.14,0000.38,0000.46,0000.34,0001.23,0000.90,0000.57,19.0,25.3,05.0,03.4,0676.0,31.0
2021-09-02T19:10:00Z,00000200,00000000,0004.63,0003.38,0002.02,0000.78,0000.20,0000.44,0001.02,0000.69,0000.64,19.0,25.3,05.0,03.4,0676.0,31.0
2021-09-02T19:11:00Z,00000200,00000000,0004.95,0003.59,0002.18,0000.86,0000.50,0000.53,0000.86,0000.70,0001.01,19.0,25.3,05.1,03.5,0676.0,31.0
2021-09-02T19:12:00Z,00000200,00000000,0004.02,0003.11,0002.28,0000.26,0000.50,0000.16,0000.83,0001.02,0000.73,19.0,25.3,05.1,03.4,0676.0,31.0
2021-09-02T19:13:00Z,00000200,00000000,0004.33,0003.04,0002.04,0000.47,0000.32,0000.03,0000.45,0000.44,0000.44,19.0,25.3,05.1,03.5,0675.9,31.0
2021-09-02T19:14:00Z,00000200,00000000,0004.45,0003.36,0002.00,0000.57,0000.63,0000.10,0001.41,0000.95,0000.92,19.0,25.3,05.0,03.4,0676.0,31.1
2021-09-02T19:15:00Z,00000200,00000000,0005.22,0003.50,0002.13,0000.79,0000.37,0000.15,0000.77,0001.07,0000.78,19.0,25.3,05.1,03.5,0675.9,31.0
2021-09-02T19:16:00Z,00000200,00000000,0004.86,0003.45,0002.08,0000.78,0000.51,0000.38,0000.94,0000.71,0000.32,19.0,25.3,05.2,03.6,0676.0,31.0
2021-09-02T19:17:00Z,00000200,00000000,0004.05,0003.35,0002.11,0000.80,0000.41,0000.22,0000.98,0000.64,0000.84,19.0,25.3,05.2,03.5,0676.0,31.0
2021-09-02T19:18:00Z,00000200,00000000,0004.73,0003.34,0002.24,0001.40,0000.40,0000.20,0000.76,0001.08,0000.46,19.0,25.3,05.2,03.6,0675.9,31.0
2021-09-02T19:19:00Z,00000200,00000000,0004.85,0003.36,0002.46,0000.32,0000.33,0000.45,0000.82,0000.92,0000.83,19.0,25.3,05.1,03.5,0675.9,31.0
2021-09-02T19:20:00Z,00000200,00000000,0004.66,0003.45,0002.10,0000.50,0000.56,0000.10,0000.87,0000.79,0000.54,19.0,25.3,05.1,03.5,0675.9,31.0
2021-09-02T19:21:00Z,00000200,00000000,0004.93,0003.78,0001.95,0000.56,0000.30,0000.20,0000.92,0000.99,0000.82,19.0,25.3,05.1,03.5,0675.9,31.0
2021-09-02T19:22:00Z,00000200,00000000,0004.61,0003.28,0002.09,0000.06,0000.71,0000.63,0000.80,0000.45,0000.46,19.0,25.3,05.1,03.5,0675.9,31.0
2021-09-02T19:23:00Z,00000200,00000000,0004.69,0003.24,0002.26,0000.74,0000.43,0000.30,0000.99,0000.83,0000.81,19.0,25.3,05.2,03.5,0675.9,31.0
2021-09-02T19:24:00Z,00000200,00010000,0004.29,0003.62,0002.32,0001.00,0000.39,0000.40,0000.85,0000.86,0000.76,19.0,25.3,05.2,03.6,0675.9,31.0
2021-09-02T19:25:00Z,00000200,00000000,0004.77,0003.69,0002.24,0000.77,0000.38,0000.30,0001.01,0000.85,0000.43,19.0,25.3,05.3,03.6,0675.9,31.1
2021-09-02T19:26:00Z,00000200,00000000,0003.35,0003.54,0002.13,0000.76,0000.58,0000.38,0000.79,0000.64,0000.70,19.0,25.3,05.2,03.6,0675.8,31.0
2021-09-02T19:27:00Z,00000200,00000000,0005.32,0003.19,0002.25,0000.50,0000.54,0000.30,0000.83,0000.65,0000.43,19.0,25.3,05.3,03.6,0675.8,31.0
2021-09-02T19:28:00Z,00000200,00000000,0004.73,0003.29,0002.22,0000.64,0000.24,0000.26,0001.00,0001.21,0000.76,19.0,25.3,05.2,03.5,0675.8,31.1
2021-09-02T19:29:00Z,00000200,00000000,0004.10,0003.14,0001.95,0000.67,0000.47,0000.21,0000.56,0000.60,0000.58,19.0,25.3,05.3,03.6,0675.8,31.0
2021-09-02T19:30:00Z,00000200,00000000,0004.64,0003.46,0002.15,0000.84,0000.54,0000.36,0000.97,0001.15,0000.87,19.0,25.3,05.3,03.6,0675.8,31.0
2021-09-02T19:31:00Z,00000200,00000000,0004.85,0003.44,0002.15,0000.77,0000.33,0000.35,0001.16,0000.33,0000.40,19.0,25.3,05.2,03.6,0675.8,31.0
2021-09-02T19:32:00Z,00000200,00000000,0003.99,0003.28,0002.15,0000.57,0000.61,0000.09,0000.63,0000.97,0000.52,19.0,25.3,05.3,03.6,0675.9,31.0
2021-09-02T19:33:00Z,00000200,00000000,0003.99,0003.22,0001.99,0000.55,0000.90,0000.35,0000.79,0000.86,0000.83,19.0,25.3,05.3,03.6,0675.8,31.0
2021-09-02T19:34:00Z,00000200,00000000,0004.27,0003.77,0002.10,0000.47,0000.53,0000.34,0000.89,0000.53,0000.48,19.0,25.3,05.3,03.6,0675.8,31.0
2021-09-02T19:35:00Z,00000200,00000000,0004.58,0003.26,0001.80,0000.34,0000.37,0000.36,0000.94,0001.00,0000.78,19.0,25.3,05.3,03.6,0675.8,31.0
2021-09-02T19:36:00Z,00000200,00000000,0004.68,0003.47,0002.57,0000.19,0000.80,0000.42,0000.90,0000.90,0000.41,19.0,25.3,05.3,03.6,0675.9,31.0
2021-09-02T19:37:00Z,00000200,00000000,0005.04,0003.02,0002.15,0000.70,0000.54,0000.22,0000.96,0000.71,0000.58,19.0,25.3,05.3,03.7,0675.8,31.0
2021-09-02T19:38:00Z,00000200,00000000,0004.88,0003.24,0002.21,0000.67,0000.35,0000.32,0000.76,0000.83,0000.92,19.0,25.3,05.3,03.7,0675.8,31.0
2021-09-02T19:39:00Z,00000200,00000000,0004.47,0003.14,0001.97,0000.79,0000.42,0000.16,0000.71,0000.38,0000.66,19.0,25.3,05.4,03.7,0675.8,31.0
2021-09-02T19:40:00Z,00000200,00000000,0004.13,0002.99,0002.31,0000.98,0000.37,0000.19,0000.95,0001.24,0000.45,19.0,25.3,05.4,03.7,0675.8,31.0
2021-09-02T19:41:00Z,00000200,00000000,0003.62,0003.35,0002.14,0000.85,0000.72,0000.46,0000.86,0000.73,0000.67,19.0,25.3,05.5,03.8,0675.8,31.0
2021-09-02T19:42:00Z,00000200,00000000,0005.32,0003.19,0002.43,0000.23,0000.59,0000.41,0000.80,0000.67,0000.90,19.0,25.3,05.5,03.8,0675.8,31.0
2021-09-02T19:43:00Z,00000200,00000000,0003.94,0003.21,0001.98,0000.72,0000.11,0000.30,0001.07,0000.90,0000.45,19.0,25.3,05.6,03.8,0675.8,31.0
2021-09-02T19:44:00Z,00000200,00000000,0004.07,0003.04,0001.81,0000.74,0000.51,-000.03,0000.64,0001.10,0000.58,19.0,25.3,05.7,03.9,0675.8,31.1
2021-09-02T19:45:00Z,00000200,00000000,0003.91,0003.36,0001.84,0000.42,0000.38,0000.15,0000.64,0000.43,0000.70,19.0,25.3,05.6,03.8,0675.8,31.1
2021-09-02T19:46:00Z,00000200,00000000,0004.13,0003.00,0001.72,0001.11,0000.19,0000.44,0000.93,0001.07,0000.69,19.0,25.3,05.6,03.9,0675.8,31.0
2021-09-02T19:47:00Z,00000200,00000000,0004.22,0003.53,0001.90,0000.18,0000.23,-000.09,0001.00,0000.55,0000.56,19.0,25.3,05.7,03.9,0675.8,31.0
2021-09-02T19:48:00Z,00000200,00000000,0005.08,0003.17,0001.85,0000.55,0000.43,0000.37,0000.71,0000.64,0000.37,19.0,25.3,05.8,04.0,0675.8,31.0
2021-09-02T19:49:00Z,00000200,00000000,0003.57,0003.45,0001.80,0000.27,0000.52,0000.12,0000.94,0000.64,0000.65,19.0,25.2,05.8,04.0,0675.8,31.0
2021-09-02T19:50:00Z,00000200,00000000,0004.13,0003.23,0001.83,0000.54,0000.62,0000.09,0000.75,0000.70,0000.50,19.0,25.2,05.7,03.9,0675.8,31.0
2021-09-02T19:51:00Z,00000200,00000000,0003.79,0003.28,0001.78,0000.88,0000.54,0000.43,0001.00,0001.01,0000.86,19.0,25.3,05.8,03.9,0675.8,31.0
2021-09-02T19:52:00Z,00000200,00000000,0004.60,0002.93,0001.93,0000.49,0000.40,0000.43,0000.76,0000.60,0000.45,19.0,25.3,05.8,04.0,0675.8,31.1
2021-09-02T19:53:00Z,00000200,00000000,0004.34,0003.14,0001.97,0000.98,0000.21,0000.03,0000.69,0000.84,0000.85,19.0,25.3,05.7,03.9,0675.8,31.0
2021-09-02T19:54:00Z,00000200,00000000,0004.22,0003.57,0002.02,0000.61,0000.67,0000.34,0000.95,0000.79,0000.45,19.0,25.3,05.7,03.9,0675.8,31.0
2021-09-02T19:55:00Z,00000200,00000000,0004.13,0003.15,0002.03,0001.13,0000.31,-000.02,0000.80,0000.57,0000.65,19.0,25.3,05.6,03.9,0675.8,31.0
2021-09-02T19:56:00Z,00000200,00000000,0004.06,0003.48,0001.82,0000.94,0000.05,0000.02,0000.47,0000.83,0000.64,19.0,25.3,05.8,04.0,0675.8,31.1
2021-09-02T19:57:00Z,00000200,40000000,,,,,,,-000.06,-000.02,-000.19,19.1,25.3,06.3,04.3,0675.9,31.0
2021-09-02T19:58:00Z,00000200,60000000,,,,,,,0000.11,0000.05,0000.28,18.8,25.4,05.6,03.7,0674.8,31.0
2021-09-02T19:59:00Z,00000200,20000000,,,,,,,0000.04,0000.01,-000.23,18.8,25.5,05.6,03.7,0674.8,31.0
